(2020 JG2) |
Classification: Apollo [NEO] SPK-ID: 54017038 |
[ hide orbit diagram ]
For accurate long-term ephemerides, please instead use our Horizons system.This orbit viewer was implemented using two-body methods, and hence should not be used for determining accurate long-term trajectories (over several years or decades) or planetary encounter circumstances.
Orbital Elements at Epoch 2459000.5 (2020-May-31.0) TDB
Reference: JPL 12 (heliocentric ecliptic J2000)
Element | Value | Uncertainty (1-sigma) | Units |
e | .4478516774554259 | 0.00051108 | |
a | 1.511336865293503 | 0.0011369 | au |
q | .8344821149715825 | 0.00014465 | au |
i | 3.916511811296046 | 0.0035383 | deg |
node | 141.4492625150441 | 0.021163 | deg |
peri | 173.3402215331588 | 0.0209 | deg |
M | 334.0894054732052 | 0.036709 | deg |
tp | 2459049.344449384924 (2020-Jul-18.84444939) | 0.014084 | TDB |
period | 678.6413858774426 1.86 | 0.76579 0.002097 | d yr |
n | .5304716268291561 | 0.0005986 | deg/d |
Q | 2.188191615615424 | 0.0016461 | au |
|
| | Orbit Determination Parameters
Additional Information
|
[ hide covariance matrix ]
Orbital Elements at Epoch 2458989.5 (2020-May-20.0) TDB
Reference: JPL 12 (heliocentric ecliptic J2000)
Element | Value | Uncertainty (1-sigma) | Units |
e | .4477827029412205 | 0.00051119 | |
q | .8344888203725861 | 0.00014466 | au |
tp | 2459049.348534258292 (2020-Jul-18.84853426) | 0.014096 | TDB |
node | 141.5032834186131 | 0.021005 | deg |
peri | 173.2894976813117 | 0.020751 | deg |
i | 3.915650113052542 | 0.0035416 | deg |
|
| | Orbit Determination Parameters
Additional Information
|
Orbit Covariance (6×6)
|
|
e |
q |
tp |
node |
peri |
i |
e |
2.613113585098628E-7 |
-7.394765790540451E-8 |
-7.205697010616501E-6 |
1.072573270290636E-5 |
-1.059683613753646E-5 |
1.810400739356862E-6 |
q |
-7.394765790540451E-8 |
2.092651534332039E-8 |
2.039084702744293E-6 |
-3.035404735350151E-6 |
2.998869646896935E-6 |
-5.123201650753065E-7 |
tp |
-7.205697010616501E-6 |
2.039084702744293E-6 |
.000198701865506724 |
-.0002957329917402952 |
.0002921852107900282 |
-4.992196123486074E-5 |
node |
1.072573270290636E-5 |
-3.035404735350151E-6 |
-.0002957329917402952 |
.0004411953846883536 |
-.0004358602240328127 |
7.430748581267075E-5 |
peri |
-1.059683613753646E-5 |
2.998869646896935E-6 |
.0002921852107900282 |
-.0004358602240328127 |
.0004306003506782977 |
-7.341432773198708E-5 |
i |
1.810400739356862E-6 |
-5.123201650753065E-7 |
-4.992196123486074E-5 |
7.430748581267075E-5 |
-7.341432773198708E-5 |
1.254273108661364E-5 |
|
Physical Parameter Table
Parameter |
Symbol |
Value |
Units |
Sigma |
Reference |
Notes |
absolute magnitude |
H |
23.21 |
|
.37932 |
12 |
autocmod 2.8 |
|
[ show close-approach data ]
|